| time (UTC) | temp F | wind direction | speed MPH | gust MPH | rain 1hr in | rain 24hr in | rain mn in | humidity % | barometer mb |
| 20260506122705 | 80 | 80 | 1.0 | 8.0 | 0.00 | 0.00 | 0.00 | 41 | 1009.7 |
| 20260506122557 | 80 | 84 | 1.0 | 8.0 | 0.00 | 0.00 | 0.00 | 42 | 1009.7 |
| 20260506122538 | 80 | 17 | 1.0 | 8.0 | 0.00 | 0.00 | 0.00 | 42 | 1009.7 |
| 20260506122409 | 80 | 88 | 1.0 | 8.0 | 0.00 | 0.00 | 0.00 | 41 | 1009.7 |
| 20260506122030 | 80 | 337 | 1.0 | 11.0 | 0.00 | 0.00 | 0.00 | 41 | 1009.7 |
| 20260506121925 | 80 | 80 | 1.0 | 11.0 | 0.00 | 0.00 | 0.00 | 41 | 1010.0 |
| 20260506121824 | 80 | 47 | 1.0 | 11.0 | 0.00 | 0.00 | 0.00 | 41 | 1010.0 |
| 20260506121503 | 80 | 13 | 1.0 | 11.0 | 0.00 | 0.00 | 0.00 | 41 | 1009.8 |
| 20260506121302 | 81 | 10 | 1.0 | 11.0 | 0.00 | 0.00 | 0.00 | 41 | 1009.7 |
| 20260506121103 | 80 | 90 | 0.0 | 4.0 | 0.00 | 0.00 | 0.00 | 42 | 1009.7 |
| 20260506121030 | 80 | 98 | 0.0 | 4.0 | 0.00 | 0.00 | 0.00 | 42 | 1009.7 |
| 20260506120901 | 80 | 106 | 0.0 | 4.0 | 0.00 | 0.00 | 0.00 | 43 | 1009.8 |
| 20260506120751 | 80 | 26 | 0.0 | 4.0 | 0.00 | 0.00 | 0.00 | 44 | 1009.8 |
| 20260506120709 | 80 | 78 | 1.0 | 5.0 | 0.00 | 0.00 | 0.00 | 44 | 1009.8 |
| 20260506120650 | 80 | 11 | 0.0 | 5.0 | 0.00 | 0.00 | 0.00 | 44 | 1010.0 |
| 20260506120559 | 80 | 107 | 0.0 | 5.0 | 0.00 | 0.00 | 0.00 | 45 | 1009.8 |
| 20260506115858 | 80 | 171 | 0.0 | 5.0 | 0.00 | 0.00 | 0.00 | 45 | 1009.8 |
| 20260506115655 | 79 | 22 | 0.0 | 5.0 | 0.00 | 0.00 | 0.00 | 45 | 1010.0 |
| 20260506115530 | 79 | 26 | 0.0 | 5.0 | 0.00 | 0.00 | 0.00 | 46 | 1010.2 |
| 20260506115456 | 79 | 200 | 0.0 | 5.0 | 0.00 | 0.00 | 0.00 | 46 | 1010.0 |
| 20260506115253 | 79 | 125 | 0.0 | 5.0 | 0.00 | 0.00 | 0.00 | 46 | 1010.2 |
| 20260506115051 | 78 | 120 | 1.0 | 7.0 | 0.00 | 0.00 | 0.00 | 47 | 1010.2 |
| 20260506115030 | 78 | 49 | 1.0 | 8.0 | 0.00 | 0.00 | 0.00 | 46 | 1010.2 |
| 20260506114850 | 78 | 34 | 1.0 | 10.0 | 0.00 | 0.00 | 0.00 | 46 | 1010.3 |
| 20260506114652 | 78 | 319 | 1.0 | 10.0 | 0.00 | 0.00 | 0.00 | 46 | 1010.4 |
| 20260506114530 | 78 | 319 | 1.0 | 10.0 | 0.00 | 0.00 | 0.00 | 46 | 1010.4 |
| 20260506114452 | 78 | 318 | 1.0 | 10.0 | 0.00 | 0.00 | 0.00 | 46 | 1010.3 |
| 20260506114243 | 78 | 327 | 1.0 | 10.0 | 0.00 | 0.00 | 0.00 | 46 | 1010.4 |
| 20260506114044 | 79 | 296 | 1.0 | 10.0 | 0.00 | 0.00 | 0.00 | 45 | 1010.4 |
| 20260506114032 | 79 | 282 | 1.0 | 10.0 | 0.00 | 0.00 | 0.00 | 45 | 1010.4 |
| 20260506113843 | 79 | 301 | 1.0 | 5.0 | 0.00 | 0.00 | 0.00 | 46 | 1010.5 |
| 20260506113643 | 78 | 107 | 1.0 | 5.0 | 0.00 | 0.00 | 0.00 | 47 | 1010.4 |
| 20260506113529 | 78 | 107 | 1.0 | 5.0 | 0.00 | 0.00 | 0.00 | 46 | 1010.4 |
| 20260506113441 | 78 | 36 | 1.0 | 8.0 | 0.00 | 0.00 | 0.00 | 46 | 1010.4 |
| 20260506113245 | 78 | 7 | 1.0 | 8.0 | 0.00 | 0.00 | 0.00 | 46 | 1010.4 |
| 20260506113043 | 78 | 346 | 1.0 | 8.0 | 0.00 | 0.00 | 0.00 | 46 | 1010.4 |
| 20260506113030 | 78 | 338 | 1.0 | 8.0 | 0.00 | 0.00 | 0.00 | 46 | 1010.4 |
| 20260506112916 | 78 | 351 | 1.0 | 8.0 | 0.00 | 0.00 | 0.00 | 46 | 1010.4 |
| 20260506112821 | 78 | 356 | 1.0 | 8.0 | 0.00 | 0.00 | 0.00 | 46 | 1010.6 |
| 20260506112506 | 78 | 19 | 1.0 | 5.0 | 0.00 | 0.00 | 0.00 | 46 | 1010.5 |
| 20260506112411 | 78 | 189 | 1.0 | 7.0 | 0.00 | 0.00 | 0.00 | 45 | 1010.5 |
| 20260506112033 | 78 | 22 | 1.0 | 7.0 | 0.00 | 0.00 | 0.00 | 45 | 1010.6 |
| 20260506111839 | 78 | 85 | 1.0 | 7.0 | 0.00 | 0.00 | 0.00 | 45 | 1010.6 |
| 20260506111740 | 78 | 15 | 1.0 | 7.0 | 0.00 | 0.00 | 0.00 | 46 | 1010.6 |
| 20260506111710 | 78 | 15 | 1.0 | 7.0 | 0.00 | 0.00 | 0.00 | 45 | 1010.6 |
| 20260506111235 | 78 | 20 | 0.0 | 6.0 | 0.00 | 0.00 | 0.00 | 46 | 1010.6 |
| 20260506111109 | 78 | 110 | 0.0 | 6.0 | 0.00 | 0.00 | 0.00 | 46 | 1010.7 |
| 20260506110958 | 78 | 92 | 0.0 | 6.0 | 0.00 | 0.00 | 0.00 | 46 | 1010.6 |
| 20260506110620 | 78 | 198 | 0.0 | 2.0 | 0.00 | 0.00 | 0.00 | 45 | 1010.6 |
| 20260506110552 | 78 | 203 | 0.0 | 2.0 | 0.00 | 0.00 | 0.00 | 46 | 1010.7 |
| 20260506110503 | 78 | 173 | 0.0 | 6.0 | 0.00 | 0.00 | 0.00 | 46 | 1010.7 |
| 20260506110145 | 77 | 29 | 0.0 | 6.0 | 0.00 | 0.00 | 0.00 | 46 | 1010.8 |
| 20260506110042 | 77 | 20 | 0.0 | 6.0 | 0.00 | 0.00 | 0.00 | 47 | 1010.8 |
| 20260506105946 | 77 | 63 | 0.0 | 6.0 | 0.00 | 0.00 | 0.00 | 46 | 1010.7 |
| 20260506105307 | 77 | 108 | 0.0 | 0.0 | 0.00 | 0.00 | 0.00 | 46 | 1010.7 |
| 20260506105203 | 77 | 92 | 0.0 | 0.0 | 0.00 | 0.00 | 0.00 | 45 | 1010.9 |
| 20260506104630 | 78 | 190 | 0.0 | 4.0 | 0.00 | 0.00 | 0.00 | 45 | 1010.9 |
| 20260506104514 | 78 | 49 | 0.0 | 4.0 | 0.00 | 0.00 | 0.00 | 45 | 1010.9 |
| 20260506104431 | 78 | 49 | 0.0 | 4.0 | 0.00 | 0.00 | 0.00 | 45 | 1010.9 |
| 20260506104332 | 78 | 49 | 0.0 | 4.0 | 0.00 | 0.00 | 0.00 | 45 | 1011.0 |
| 20260506104013 | 77 | 45 | 0.0 | 4.0 | 0.00 | 0.00 | 0.00 | 45 | 1011.0 |
| 20260506103829 | 77 | 86 | 0.0 | 4.0 | 0.00 | 0.00 | 0.00 | 45 | 1010.9 |
| 20260506103727 | 77 | 25 | 0.0 | 2.0 | 0.00 | 0.00 | 0.00 | 45 | 1011.0 |
| 20260506103655 | 77 | 320 | 0.0 | 1.0 | 0.00 | 0.00 | 0.00 | 45 | 1011.0 |
| 20260506103250 | 77 | 35 | 0.0 | 9.0 | 0.00 | 0.00 | 0.00 | 45 | 1011.0 |
| 20260506103142 | 77 | 56 | 0.0 | 9.0 | 0.00 | 0.00 | 0.00 | 45 | 1011.0 |
| 20260506103055 | 77 | 74 | 0.0 | 9.0 | 0.00 | 0.00 | 0.00 | 45 | 1011.0 |
| 20260506102415 | 77 | 54 | 0.0 | 9.0 | 0.00 | 0.00 | 0.00 | 45 | 1011.1 |
| 20260506102253 | 77 | 164 | 0.0 | 1.0 | 0.00 | 0.00 | 0.00 | 46 | 1011.0 |
| 20260506102200 | 77 | 98 | 0.0 | 1.0 | 0.00 | 0.00 | 0.00 | 46 | 1011.0 |
| 20260506102151 | 77 | 88 | 0.0 | 1.0 | 0.00 | 0.00 | 0.00 | 46 | 1011.0 |
| 20260506101619 | 76 | 84 | 0.0 | 0.0 | 0.00 | 0.00 | 0.00 | 46 | 1011.1 |
| 20260506101539 | 76 | 63 | 0.0 | 0.0 | 0.00 | 0.00 | 0.00 | 46 | 1011.1 |
| 20260506101514 | 76 | 142 | 0.0 | 0.0 | 0.00 | 0.00 | 0.00 | 46 | 1011.1 |
| 20260506101423 | 76 | 293 | 0.0 | 0.0 | 0.00 | 0.00 | 0.00 | 46 | 1011.1 |
| 20260506101331 | 76 | 300 | 0.0 | 0.0 | 0.00 | 0.00 | 0.00 | 45 | 1011.1 |
| 20260506100613 | 76 | 34 | 0.0 | 0.0 | 0.00 | 0.00 | 0.00 | 45 | 1011.2 |
| 20260506100541 | 76 | 34 | 0.0 | 0.0 | 0.00 | 0.00 | 0.00 | 45 | 1011.2 |
| 20260506100514 | 76 | 34 | 0.0 | 2.0 | 0.00 | 0.00 | 0.00 | 45 | 1011.2 |
| 20260506100013 | 76 | 32 | 0.0 | 2.0 | 0.00 | 0.00 | 0.00 | 46 | 1011.2 |
| 20260506095910 | 76 | 20 | 0.0 | 2.0 | 0.00 | 0.00 | 0.00 | 46 | 1011.2 |
| 20260506095503 | 76 | 55 | 0.0 | 2.0 | 0.00 | 0.00 | 0.00 | 47 | 1011.2 |
| 20260506095418 | 76 | 103 | 0.0 | 1.0 | 0.00 | 0.00 | 0.00 | 47 | 1011.3 |
| 20260506095324 | 76 | 34 | 0.0 | 4.0 | 0.00 | 0.00 | 0.00 | 47 | 1011.3 |
| 20260506095226 | 75 | 32 | 0.0 | 4.0 | 0.00 | 0.00 | 0.00 | 47 | 1011.2 |
| 20260506094820 | 75 | 91 | 0.0 | 4.0 | 0.00 | 0.00 | 0.00 | 47 | 1011.3 |
| 20260506094721 | 75 | 76 | 0.0 | 4.0 | 0.00 | 0.00 | 0.00 | 48 | 1011.2 |
| 20260506094651 | 75 | 76 | 0.0 | 4.0 | 0.00 | 0.00 | 0.00 | 47 | 1011.3 |
| 20260506094628 | 75 | 76 | 1.0 | 5.0 | 0.00 | 0.00 | 0.00 | 48 | 1011.3 |
| 20260506094533 | 75 | 99 | 1.0 | 5.0 | 0.00 | 0.00 | 0.00 | 48 | 1011.3 |
| 20260506094229 | 74 | 80 | 1.0 | 5.0 | 0.00 | 0.00 | 0.00 | 48 | 1011.3 |
| 20260506093829 | 75 | 155 | 1.0 | 5.0 | 0.00 | 0.00 | 0.00 | 48 | 1011.3 |
| 20260506093753 | 75 | 152 | 1.0 | 5.0 | 0.00 | 0.00 | 0.00 | 47 | 1011.3 |
| 20260506093112 | 75 | 117 | 0.0 | 2.0 | 0.00 | 0.00 | 0.00 | 47 | 1011.4 |
| 20260506092607 | 75 | 49 | 0.0 | 1.0 | 0.00 | 0.00 | 0.00 | 47 | 1011.4 |
| 20260506092501 | 75 | 47 | 0.0 | 1.0 | 0.00 | 0.00 | 0.00 | 47 | 1011.4 |
| 20260506092416 | 75 | 67 | 0.0 | 1.0 | 0.00 | 0.00 | 0.00 | 47 | 1011.4 |
| 20260506092321 | 75 | 68 | 0.0 | 2.0 | 0.00 | 0.00 | 0.00 | 47 | 1011.4 |
| 20260506092221 | 75 | 115 | 0.0 | 2.0 | 0.00 | 0.00 | 0.00 | 47 | 1011.4 |
| 20260506091806 | 74 | 113 | 0.0 | 2.0 | 0.00 | 0.00 | 0.00 | 47 | 1011.4 |
| 20260506091610 | 74 | 138 | 0.0 | 2.0 | 0.00 | 0.00 | 0.00 | 48 | 1011.5 |
| 20260506091534 | 74 | 23 | 0.0 | 2.0 | 0.00 | 0.00 | 0.00 | 48 | 1011.5 |
| 20260506091507 | 74 | 20 | 0.0 | 2.0 | 0.00 | 0.00 | 0.00 | 48 | 1011.5 |
| 20260506091006 | 74 | 91 | 0.0 | 1.0 | 0.00 | 0.00 | 0.00 | 48 | 1011.5 |
| 20260506090808 | 74 | 61 | 0.0 | 0.0 | 0.00 | 0.00 | 0.00 | 48 | 1011.4 |
| 20260506090609 | 74 | 17 | 0.0 | 0.0 | 0.00 | 0.00 | 0.00 | 48 | 1011.4 |
| 20260506090536 | 74 | 1 | 0.0 | 0.0 | 0.00 | 0.00 | 0.00 | 48 | 1011.4 |
| 20260506090508 | 74 | 40 | 0.0 | 0.0 | 0.00 | 0.00 | 0.00 | 48 | 1011.4 |
| 20260506090007 | 73 | 15 | 0.0 | 0.0 | 0.00 | 0.00 | 0.00 | 48 | 1011.4 |
| 20260506085806 | 73 | 15 | 0.0 | 0.0 | 0.00 | 0.00 | 0.00 | 48 | 1011.4 |
| 20260506085606 | 73 | 15 | 0.0 | 0.0 | 0.00 | 0.00 | 0.00 | 49 | 1011.5 |
| 20260506085512 | 73 | 15 | 0.0 | 1.0 | 0.00 | 0.00 | 0.00 | 48 | 1011.4 |
| 20260506085447 | 73 | 9 | 0.0 | 1.0 | 0.00 | 0.00 | 0.00 | 49 | 1011.4 |
| 20260506085358 | 73 | 34 | 0.0 | 1.0 | 0.00 | 0.00 | 0.00 | 49 | 1011.4 |
| 20260506085256 | 73 | 34 | 0.0 | 1.0 | 0.00 | 0.00 | 0.00 | 49 | 1011.4 |
| 20260506084943 | 73 | 35 | 0.0 | 1.0 | 0.00 | 0.00 | 0.00 | 49 | 1011.4 |
| 20260506084503 | 73 | 59 | 0.0 | 1.0 | 0.00 | 0.00 | 0.00 | 49 | 1011.5 |
| 20260506084413 | 73 | 30 | 0.0 | 1.0 | 0.00 | 0.00 | 0.00 | 49 | 1011.4 |
| 20260506084318 | 72 | 35 | 0.0 | 3.0 | 0.00 | 0.00 | 0.00 | 49 | 1011.5 |
| 20260506084221 | 72 | 134 | 0.0 | 4.0 | 0.00 | 0.00 | 0.00 | 50 | 1011.5 |
| 20260506083813 | 72 | 134 | 0.0 | 4.0 | 0.00 | 0.00 | 0.00 | 50 | 1011.5 |
| 20260506083714 | 72 | 94 | 0.0 | 4.0 | 0.00 | 0.00 | 0.00 | 49 | 1011.5 |
| 20260506083643 | 72 | 113 | 0.0 | 4.0 | 0.00 | 0.00 | 0.00 | 50 | 1011.5 |
| 20260506083207 | 72 | 129 | 0.0 | 4.0 | 0.00 | 0.00 | 0.00 | 51 | 1011.4 |
| 20260506083009 | 72 | 109 | 0.0 | 3.0 | 0.00 | 0.00 | 0.00 | 51 | 1011.5 |
| 20260506082906 | 72 | 103 | 0.0 | 3.0 | 0.00 | 0.00 | 0.00 | 51 | 1011.5 |
| 20260506082817 | 71 | 6 | 0.0 | 3.0 | 0.00 | 0.00 | 0.00 | 51 | 1011.5 |
| 20260506082509 | 71 | 67 | 0.0 | 5.0 | 0.00 | 0.00 | 0.00 | 51 | 1011.5 |
| 20260506082005 | 71 | 113 | 0.0 | 5.0 | 0.00 | 0.00 | 0.00 | 52 | 1011.5 |
| 20260506081851 | 71 | 74 | 0.0 | 5.0 | 0.00 | 0.00 | 0.00 | 52 | 1011.4 |
| 20260506081728 | 71 | 76 | 0.0 | 5.0 | 0.00 | 0.00 | 0.00 | 53 | 1011.5 |
| 20260506081654 | 71 | 123 | 0.0 | 5.0 | 0.00 | 0.00 | 0.00 | 53 | 1011.5 |
| 20260506081327 | 70 | 46 | 0.0 | 4.0 | 0.00 | 0.00 | 0.00 | 52 | 1011.5 |
| 20260506081015 | 70 | 45 | 0.0 | 4.0 | 0.00 | 0.00 | 0.00 | 53 | 1011.5 |
| 20260506080912 | 70 | 32 | 0.0 | 4.0 | 0.00 | 0.00 | 0.00 | 52 | 1011.5 |
| 20260506080501 | 70 | 28 | 0.0 | 3.0 | 0.00 | 0.00 | 0.00 | 54 | 1011.4 |
| 20260506080407 | 70 | 38 | 1.0 | 3.0 | 0.00 | 0.00 | 0.00 | 54 | 1011.5 |
| 20260506080207 | 70 | 141 | 1.0 | 7.0 | 0.00 | 0.00 | 0.00 | 54 | 1011.5 |
| 20260506073502 | 69 | 76 | 0.0 | 2.0 | 0.00 | 0.00 | 0.00 | 54 | 1011.5 |
| 20260506073411 | 69 | 65 | 0.0 | 2.0 | 0.00 | 0.00 | 0.00 | 54 | 1011.5 |
| 20260506073317 | 69 | 121 | 1.0 | 6.0 | 0.00 | 0.00 | 0.00 | 56 | 1011.5 |
| 20260506073218 | 69 | 106 | 1.0 | 7.0 | 0.00 | 0.00 | 0.00 | 56 | 1011.5 |
| 20260506072805 | 69 | 80 | 1.0 | 7.0 | 0.00 | 0.00 | 0.00 | 56 | 1011.5 |
| 20260506072608 | 69 | 111 | 1.0 | 7.0 | 0.00 | 0.00 | 0.00 | 56 | 1011.4 |
| 20260506072502 | 69 | 111 | 1.0 | 7.0 | 0.00 | 0.00 | 0.00 | 56 | 1011.5 |
| 20260506072406 | 69 | 111 | 1.0 | 7.0 | 0.00 | 0.00 | 0.00 | 55 | 1011.5 |
| 20260506072206 | 69 | 127 | 0.0 | 7.0 | 0.00 | 0.00 | 0.00 | 54 | 1011.5 |
| 20260506072007 | 69 | 115 | 0.0 | 2.0 | 0.00 | 0.00 | 0.00 | 54 | 1011.5 |
| 20260506071806 | 69 | 102 | 0.0 | 2.0 | 0.00 | 0.00 | 0.00 | 56 | 1011.4 |
| 20260506071607 | 69 | 85 | 0.0 | 2.0 | 0.00 | 0.00 | 0.00 | 56 | 1011.5 |
| 20260506071503 | 69 | 110 | 0.0 | 2.0 | 0.00 | 0.00 | 0.00 | 56 | 1011.5 |
| 20260506071407 | 69 | 93 | 0.0 | 1.0 | 0.00 | 0.00 | 0.00 | 56 | 1011.4 |
| 20260506071208 | 69 | 71 | 0.0 | 1.0 | 0.00 | 0.00 | 0.00 | 56 | 1011.4 |
| 20260506071007 | 69 | 75 | 0.0 | 3.0 | 0.00 | 0.00 | 0.00 | 56 | 1011.4 |
| 20260506070806 | 69 | 75 | 0.0 | 5.0 | 0.00 | 0.00 | 0.00 | 56 | 1011.5 |
| 20260506070607 | 69 | 74 | 0.0 | 5.0 | 0.00 | 0.00 | 0.00 | 56 | 1011.5 |
| 20260506070501 | 69 | 74 | 0.0 | 5.0 | 0.00 | 0.00 | 0.00 | 56 | 1011.5 |
| 20260506070407 | 69 | 81 | 0.0 | 5.0 | 0.00 | 0.00 | 0.00 | 56 | 1011.5 |
| 20260506070227 | 69 | 76 | 0.0 | 5.0 | 0.00 | 0.00 | 0.00 | 56 | 1011.5 |
| 20260506070123 | 69 | 129 | 0.0 | 5.0 | 0.00 | 0.00 | 0.00 | 57 | 1011.6 |
| 20260506062500 | 67 | 163 | 0.0 | 0.0 | 0.00 | 0.00 | 0.00 | 59 | 1011.6 |
| 20260506062407 | 67 | 163 | 0.0 | 0.0 | 0.00 | 0.00 | 0.00 | 59 | 1011.6 |
| 20260506062242 | 67 | 163 | 0.0 | 0.0 | 0.00 | 0.00 | 0.00 | 60 | 1011.6 |
| 20260506062148 | 67 | 163 | 0.0 | 0.0 | 0.00 | 0.00 | 0.00 | 60 | 1011.7 |
| 20260506062138 | 67 | 163 | 0.0 | 0.0 | 0.00 | 0.00 | 0.00 | 60 | 1011.7 |
| 20260506062040 | 67 | 163 | 0.0 | 0.0 | 0.00 | 0.00 | 0.00 | 60 | 1011.7 |
| 20260506061709 | 67 | 163 | 0.0 | 0.0 | 0.00 | 0.00 | 0.00 | 60 | 1011.7 |
| 20260506061207 | 67 | 163 | 0.0 | 0.0 | 0.00 | 0.00 | 0.00 | 61 | 1011.6 |
| 20260506061009 | 66 | 163 | 0.0 | 0.0 | 0.00 | 0.00 | 0.00 | 61 | 1011.7 |
| 20260506060959 | 66 | 163 | 0.0 | 0.0 | 0.00 | 0.00 | 0.00 | 61 | 1011.7 |
| 20260506060807 | 66 | 163 | 0.0 | 0.0 | 0.00 | 0.00 | 0.00 | 61 | 1011.7 |
| 20260506060607 | 66 | 163 | 0.0 | 0.0 | 0.00 | 0.00 | 0.00 | 61 | 1011.7 |
| 20260506060502 | 66 | 163 | 0.0 | 0.0 | 0.00 | 0.00 | 0.00 | 61 | 1011.6 |
| 20260506060407 | 66 | 164 | 0.0 | 0.0 | 0.00 | 0.00 | 0.00 | 61 | 1011.7 |
| 20260506060206 | 66 | 165 | 0.0 | 0.0 | 0.00 | 0.00 | 0.00 | 62 | 1011.7 |
| 20260506051406 | 61 | 155 | 2.0 | 7.0 | 0.00 | 0.00 | 0.00 | 64 | 1011.5 |
| 20260506051206 | 61 | 177 | 2.0 | 7.0 | 0.00 | 0.00 | 0.00 | 65 | 1011.6 |
| 20260506051011 | 61 | 190 | 2.0 | 7.0 | 0.00 | 0.00 | 0.00 | 65 | 1011.5 |
| 20260506050948 | 61 | 190 | 2.0 | 7.0 | 0.00 | 0.00 | 0.00 | 65 | 1011.5 |
| 20260506050819 | 61 | 190 | 2.0 | 7.0 | 0.00 | 0.00 | 0.00 | 65 | 1011.4 |
| 20260506050721 | 60 | 190 | 2.0 | 7.0 | 0.00 | 0.00 | 0.00 | 65 | 1011.4 |
| 20260506050634 | 60 | 210 | 2.0 | 7.0 | 0.00 | 0.00 | 0.00 | 65 | 1011.4 |
| 20260506050207 | 60 | 188 | 3.0 | 9.0 | 0.00 | 0.00 | 0.00 | 66 | 1011.5 |
| 20260506045006 | 59 | 184 | 3.0 | 7.0 | 0.00 | 0.00 | 0.00 | 66 | 1011.4 |
| 20260506044938 | 59 | 243 | 3.0 | 7.0 | 0.00 | 0.00 | 0.00 | 66 | 1011.4 |
| 20260506044808 | 59 | 244 | 4.0 | 7.0 | 0.00 | 0.00 | 0.00 | 66 | 1011.3 |
| 20260506044606 | 59 | 243 | 3.0 | 7.0 | 0.00 | 0.00 | 0.00 | 67 | 1011.4 |
| 20260506044436 | 59 | 215 | 3.0 | 8.0 | 0.00 | 0.00 | 0.00 | 66 | 1011.4 |
| 20260506044406 | 59 | 237 | 3.0 | 8.0 | 0.00 | 0.00 | 0.00 | 66 | 1011.4 |
| 20260506044207 | 59 | 255 | 3.0 | 8.0 | 0.00 | 0.00 | 0.00 | 67 | 1011.4 |
| 20260506044008 | 58 | 223 | 3.0 | 8.0 | 0.00 | 0.00 | 0.00 | 67 | 1011.3 |
| 20260506043936 | 58 | 243 | 3.0 | 8.0 | 0.00 | 0.00 | 0.00 | 67 | 1011.3 |
| 20260506043806 | 58 | 248 | 3.0 | 8.0 | 0.00 | 0.00 | 0.00 | 67 | 1011.4 |
| 20260506043607 | 58 | 228 | 4.0 | 8.0 | 0.00 | 0.00 | 0.00 | 67 | 1011.3 |
| 20260506043435 | 58 | 247 | 4.0 | 8.0 | 0.00 | 0.00 | 0.00 | 67 | 1011.3 |
| 20260506043406 | 58 | 250 | 4.0 | 8.0 | 0.00 | 0.00 | 0.00 | 67 | 1011.3 |
| 20260506043205 | 58 | 246 | 4.0 | 8.0 | 0.00 | 0.00 | 0.00 | 67 | 1011.4 |
| 20260506043009 | 58 | 240 | 4.0 | 8.0 | 0.00 | 0.00 | 0.00 | 67 | 1011.4 |
| 20260506042932 | 58 | 217 | 4.0 | 8.0 | 0.00 | 0.00 | 0.00 | 67 | 1011.4 |
| 20260506042807 | 58 | 220 | 4.0 | 8.0 | 0.00 | 0.00 | 0.00 | 67 | 1011.4 |
| 20260506042606 | 58 | 250 | 4.0 | 8.0 | 0.00 | 0.00 | 0.00 | 67 | 1011.4 |
| 20260506042433 | 58 | 225 | 4.0 | 8.0 | 0.00 | 0.00 | 0.00 | 67 | 1011.3 |
| 20260506042407 | 58 | 234 | 4.0 | 8.0 | 0.00 | 0.00 | 0.00 | 67 | 1011.4 |
| 20260506042206 | 57 | 233 | 3.0 | 8.0 | 0.00 | 0.00 | 0.00 | 67 | 1011.3 |
| 20260506042009 | 57 | 244 | 3.0 | 8.0 | 0.00 | 0.00 | 0.00 | 67 | 1011.3 |
| 20260506041934 | 57 | 240 | 3.0 | 8.0 | 0.00 | 0.00 | 0.00 | 67 | 1011.3 |
| 20260506041807 | 57 | 214 | 3.0 | 7.0 | 0.00 | 0.00 | 0.00 | 67 | 1011.3 |
| 20260506041608 | 57 | 234 | 3.0 | 7.0 | 0.00 | 0.00 | 0.00 | 68 | 1011.4 |
| 20260506041431 | 57 | 178 | 3.0 | 8.0 | 0.00 | 0.00 | 0.00 | 67 | 1011.3 |
| 20260506041409 | 57 | 195 | 4.0 | 9.0 | 0.00 | 0.00 | 0.00 | 67 | 1011.3 |
| 20260506041310 | 57 | 217 | 5.0 | 10.0 | 0.00 | 0.00 | 0.00 | 67 | 1011.3 |
| 20260506040932 | 57 | 223 | 5.0 | 10.0 | 0.00 | 0.00 | 0.00 | 67 | 1011.3 |
| 20260506040807 | 57 | 224 | 6.0 | 10.0 | 0.00 | 0.00 | 0.00 | 67 | 1011.2 |
| 20260506040607 | 57 | 219 | 6.0 | 10.0 | 0.00 | 0.00 | 0.00 | 67 | 1011.2 |
| 20260506040431 | 57 | 229 | 6.0 | 10.0 | 0.00 | 0.00 | 0.00 | 67 | 1011.2 |
| 20260506040407 | 57 | 239 | 6.0 | 10.0 | 0.00 | 0.00 | 0.00 | 67 | 1011.2 |
| 20260506040207 | 57 | 240 | 6.0 | 10.0 | 0.00 | 0.00 | 0.00 | 67 | 1011.2 |
| 20260506040009 | 57 | 235 | 6.0 | 10.0 | 0.00 | 0.00 | 0.00 | 67 | 1011.2 |
| 20260506035930 | 57 | 209 | 6.0 | 10.0 | 0.00 | 0.00 | 0.00 | 67 | 1011.2 |
| 20260506035806 | 57 | 264 | 6.0 | 10.0 | 0.00 | 0.00 | 0.00 | 67 | 1011.2 |
| 20260506035605 | 57 | 251 | 6.0 | 10.0 | 0.00 | 0.00 | 0.00 | 67 | 1011.2 |
| 20260506035432 | 57 | 233 | 6.0 | 10.0 | 0.00 | 0.00 | 0.00 | 67 | 1011.1 |
| 20260506035405 | 57 | 198 | 6.0 | 9.0 | 0.00 | 0.00 | 0.00 | 67 | 1011.1 |
| 20260506035222 | 57 | 205 | 5.0 | 9.0 | 0.00 | 0.00 | 0.00 | 67 | 1011.2 |
| 20260506035125 | 57 | 232 | 6.0 | 10.0 | 0.00 | 0.00 | 0.00 | 67 | 1011.1 |
| 20260506035105 | 57 | 213 | 6.0 | 10.0 | 0.00 | 0.00 | 0.00 | 67 | 1011.1 |
| 20260506034606 | 57 | 226 | 6.0 | 10.0 | 0.00 | 0.00 | 0.00 | 67 | 1011.1 |
| 20260506034503 | 57 | 198 | 6.0 | 10.0 | 0.00 | 0.00 | 0.00 | 67 | 1011.2 |
| 20260506034414 | 57 | 223 | 6.0 | 10.0 | 0.00 | 0.00 | 0.00 | 67 | 1011.1 |
| 20260506034207 | 57 | 220 | 5.0 | 10.0 | 0.00 | 0.00 | 0.00 | 67 | 1011.1 |
| 20260506034009 | 57 | 221 | 4.0 | 9.0 | 0.00 | 0.00 | 0.00 | 68 | 1011.1 |
| 20260506033931 | 57 | 223 | 4.0 | 9.0 | 0.00 | 0.00 | 0.00 | 68 | 1011.1 |
| 20260506033812 | 57 | 249 | 4.0 | 9.0 | 0.00 | 0.00 | 0.00 | 68 | 1011.1 |
| 20260506033718 | 56 | 217 | 4.0 | 9.0 | 0.00 | 0.00 | 0.00 | 68 | 1011.1 |
| 20260506033632 | 56 | 237 | 4.0 | 8.0 | 0.00 | 0.00 | 0.00 | 68 | 1011.1 |
| 20260506033207 | 56 | 211 | 4.0 | 7.0 | 0.00 | 0.00 | 0.00 | 68 | 1011.1 |
| 20260506033007 | 56 | 228 | 4.0 | 7.0 | 0.00 | 0.00 | 0.00 | 68 | 1011.1 |
| 20260506032932 | 56 | 232 | 4.0 | 7.0 | 0.00 | 0.00 | 0.00 | 68 | 1011.1 |
| 20260506032820 | 56 | 262 | 4.0 | 7.0 | 0.00 | 0.00 | 0.00 | 68 | 1011.1 |
| 20260506032726 | 56 | 261 | 4.0 | 7.0 | 0.00 | 0.00 | 0.00 | 68 | 1011.1 |
| 20260506032406 | 56 | 248 | 3.0 | 8.0 | 0.00 | 0.00 | 0.00 | 68 | 1011.1 |
| 20260506032206 | 56 | 216 | 3.0 | 8.0 | 0.00 | 0.00 | 0.00 | 68 | 1011.0 |
| 20260506032008 | 57 | 244 | 3.0 | 8.0 | 0.00 | 0.00 | 0.00 | 68 | 1011.0 |
| 20260506031930 | 57 | 252 | 3.0 | 8.0 | 0.00 | 0.00 | 0.00 | 68 | 1011.0 |
| 20260506031806 | 57 | 252 | 3.0 | 8.0 | 0.00 | 0.00 | 0.00 | 68 | 1011.0 |
| 20260506031647 | 57 | 232 | 2.0 | 8.0 | 0.00 | 0.00 | 0.00 | 68 | 1011.0 |
| 20260506031606 | 57 | 242 | 2.0 | 7.0 | 0.00 | 0.00 | 0.00 | 68 | 1010.9 |
| 20260506031550 | 57 | 218 | 2.0 | 7.0 | 0.00 | 0.00 | 0.00 | 68 | 1011.0 |
| 20260506031455 | 57 | 222 | 2.0 | 7.0 | 0.00 | 0.00 | 0.00 | 68 | 1010.9 |
| 20260506031331 | 57 | 228 | 2.0 | 7.0 | 0.00 | 0.00 | 0.00 | 67 | 1010.9 |
| 20260506030607 | 57 | 231 | 2.0 | 5.0 | 0.00 | 0.00 | 0.00 | 67 | 1010.9 |
| 20260506030430 | 57 | 213 | 2.0 | 5.0 | 0.00 | 0.00 | 0.00 | 67 | 1010.9 |
| 20260506030408 | 57 | 243 | 2.0 | 7.0 | 0.00 | 0.00 | 0.00 | 67 | 1011.0 |
| 20260506030207 | 57 | 265 | 3.0 | 7.0 | 0.00 | 0.00 | 0.00 | 67 | 1010.9 |
| 20260506030008 | 57 | 267 | 3.0 | 7.0 | 0.00 | 0.00 | 0.00 | 67 | 1011.0 |
| 20260506025930 | 57 | 223 | 3.0 | 7.0 | 0.00 | 0.00 | 0.00 | 67 | 1011.0 |
| 20260506025806 | 57 | 264 | 3.0 | 7.0 | 0.00 | 0.00 | 0.00 | 67 | 1011.0 |
| 20260506025606 | 57 | 231 | 3.0 | 7.0 | 0.00 | 0.00 | 0.00 | 67 | 1010.9 |
| 20260506025438 | 57 | 235 | 3.0 | 7.0 | 0.00 | 0.00 | 0.00 | 67 | 1010.9 |
| 20260506025419 | 57 | 241 | 3.0 | 7.0 | 0.00 | 0.00 | 0.00 | 67 | 1010.9 |
| 20260506025324 | 57 | 234 | 3.0 | 7.0 | 0.00 | 0.00 | 0.00 | 67 | 1010.9 |
| 20260506024957 | 57 | 236 | 3.0 | 7.0 | 0.00 | 0.00 | 0.00 | 67 | 1010.8 |
| 20260506024906 | 57 | 231 | 3.0 | 7.0 | 0.00 | 0.00 | 0.00 | 67 | 1010.8 |
| 20260506024525 | 57 | 230 | 3.0 | 7.0 | 0.00 | 0.00 | 0.00 | 67 | 1010.8 |
| 20260506024509 | 57 | 246 | 3.0 | 7.0 | 0.00 | 0.00 | 0.00 | 67 | 1010.9 |
| 20260506024007 | 57 | 261 | 3.0 | 8.0 | 0.00 | 0.00 | 0.00 | 67 | 1010.8 |
| 20260506023933 | 57 | 240 | 3.0 | 8.0 | 0.00 | 0.00 | 0.00 | 67 | 1010.8 |
| 20260506023808 | 57 | 242 | 4.0 | 8.0 | 0.00 | 0.00 | 0.00 | 67 | 1010.8 |
| 20260506023709 | 57 | 255 | 4.0 | 8.0 | 0.00 | 0.00 | 0.00 | 67 | 1010.7 |
| 20260506023625 | 57 | 250 | 4.0 | 8.0 | 0.00 | 0.00 | 0.00 | 67 | 1010.8 |
| 20260506023612 | 57 | 242 | 4.0 | 8.0 | 0.00 | 0.00 | 0.00 | 67 | 1010.8 |
| 20260506022922 | 57 | 219 | 4.0 | 8.0 | 0.00 | 0.00 | 0.00 | 67 | 1010.9 |
| 20260506022806 | 57 | 244 | 4.0 | 8.0 | 0.00 | 0.00 | 0.00 | 67 | 1010.9 |
| 20260506022606 | 57 | 226 | 4.0 | 8.0 | 0.00 | 0.00 | 0.00 | 67 | 1010.9 |
| 20260506022425 | 57 | 259 | 4.0 | 9.0 | 0.00 | 0.00 | 0.00 | 67 | 1010.9 |
| 20260506022411 | 57 | 247 | 4.0 | 9.0 | 0.00 | 0.00 | 0.00 | 67 | 1010.8 |
| 20260506022313 | 57 | 234 | 5.0 | 10.0 | 0.00 | 0.00 | 0.00 | 67 | 1010.9 |
| 20260506021923 | 57 | 204 | 5.0 | 10.0 | 0.00 | 0.00 | 0.00 | 67 | 1010.9 |
| 20260506021809 | 57 | 236 | 4.0 | 10.0 | 0.00 | 0.00 | 0.00 | 68 | 1010.9 |
| 20260506021716 | 57 | 258 | 4.0 | 10.0 | 0.00 | 0.00 | 0.00 | 68 | 1010.9 |
| 20260506021628 | 57 | 228 | 4.0 | 10.0 | 0.00 | 0.00 | 0.00 | 68 | 1010.9 |
| 20260506021206 | 57 | 203 | 4.0 | 8.0 | 0.00 | 0.00 | 0.00 | 68 | 1010.9 |
| 20260506021009 | 57 | 243 | 4.0 | 8.0 | 0.00 | 0.00 | 0.00 | 68 | 1010.9 |
| 20260506020924 | 57 | 242 | 4.0 | 8.0 | 0.00 | 0.00 | 0.00 | 68 | 1010.9 |
| 20260506020809 | 57 | 253 | 4.0 | 8.0 | 0.00 | 0.00 | 0.00 | 68 | 1010.9 |
| 20260506020714 | 57 | 211 | 4.0 | 9.0 | 0.00 | 0.00 | 0.00 | 68 | 1011.0 |
| 20260506020629 | 57 | 242 | 4.0 | 9.0 | 0.00 | 0.00 | 0.00 | 67 | 1010.9 |
| 20260506020208 | 57 | 246 | 4.0 | 9.0 | 0.00 | 0.00 | 0.00 | 67 | 1010.9 |
| 20260506020017 | 57 | 248 | 3.0 | 9.0 | 0.00 | 0.00 | 0.00 | 67 | 1010.9 |
| 20260506015949 | 57 | 280 | 3.0 | 9.0 | 0.00 | 0.00 | 0.00 | 67 | 1010.9 |
| 20260506015908 | 57 | 228 | 3.0 | 9.0 | 0.00 | 0.00 | 0.00 | 67 | 1010.9 |
| 20260506015423 | 58 | 241 | 2.0 | 5.0 | 0.00 | 0.00 | 0.00 | 67 | 1010.9 |
| 20260506015406 | 58 | 241 | 2.0 | 5.0 | 0.00 | 0.00 | 0.00 | 67 | 1010.8 |
| 20260506015207 | 58 | 242 | 2.0 | 5.0 | 0.00 | 0.00 | 0.00 | 66 | 1010.9 |
| 20260506015008 | 58 | 242 | 1.0 | 4.0 | 0.00 | 0.00 | 0.00 | 66 | 1011.0 |
| 20260506014921 | 58 | 242 | 1.0 | 4.0 | 0.00 | 0.00 | 0.00 | 66 | 1011.0 |
| 20260506014807 | 58 | 243 | 1.0 | 4.0 | 0.00 | 0.00 | 0.00 | 66 | 1010.9 |
| 20260506014641 | 58 | 242 | 1.0 | 4.0 | 0.00 | 0.00 | 0.00 | 66 | 1010.9 |
| 20260506014558 | 58 | 242 | 1.0 | 4.0 | 0.00 | 0.00 | 0.00 | 66 | 1011.0 |
| 20260506014545 | 58 | 242 | 1.0 | 4.0 | 0.00 | 0.00 | 0.00 | 66 | 1010.9 |
| 20260506014452 | 58 | 250 | 0.0 | 3.0 | 0.00 | 0.00 | 0.00 | 66 | 1011.0 |
| 20260506014403 | 58 | 260 | 0.0 | 3.0 | 0.00 | 0.00 | 0.00 | 66 | 1011.0 |
| 20260506013718 | 58 | 259 | 0.0 | 4.0 | 0.00 | 0.00 | 0.00 | 66 | 1010.8 |
| 20260506013406 | 58 | 259 | 0.0 | 4.0 | 0.00 | 0.00 | 0.00 | 65 | 1010.8 |
| 20260506013207 | 58 | 260 | 0.0 | 4.0 | 0.00 | 0.00 | 0.00 | 65 | 1010.8 |
| 20260506013008 | 59 | 235 | 0.0 | 4.0 | 0.00 | 0.00 | 0.00 | 65 | 1010.8 |
| 20260506012917 | 59 | 256 | 0.0 | 0.0 | 0.00 | 0.00 | 0.00 | 65 | 1010.8 |
| 20260506012809 | 59 | 256 | 0.0 | 0.0 | 0.00 | 0.00 | 0.00 | 65 | 1010.8 |
| 20260506012713 | 59 | 256 | 0.0 | 0.0 | 0.00 | 0.00 | 0.00 | 65 | 1010.8 |
| 20260506012407 | 59 | 244 | 0.0 | 2.0 | 0.00 | 0.00 | 0.00 | 65 | 1010.8 |
| 20260506012208 | 59 | 242 | 0.0 | 3.0 | 0.00 | 0.00 | 0.00 | 65 | 1010.9 |
| 20260506012012 | 59 | 230 | 1.0 | 4.0 | 0.00 | 0.00 | 0.00 | 65 | 1010.8 |
| 20260506011915 | 59 | 230 | 1.0 | 6.0 | 0.00 | 0.00 | 0.00 | 65 | 1010.8 |
| 20260506011808 | 59 | 265 | 2.0 | 6.0 | 0.00 | 0.00 | 0.00 | 65 | 1010.8 |
| 20260506011606 | 59 | 265 | 2.0 | 6.0 | 0.00 | 0.00 | 0.00 | 65 | 1010.8 |
| 20260506011420 | 59 | 210 | 3.0 | 7.0 | 0.00 | 0.00 | 0.00 | 65 | 1010.8 |
| 20260506011408 | 59 | 209 | 3.0 | 7.0 | 0.00 | 0.00 | 0.00 | 65 | 1010.9 |
| 20260506011208 | 58 | 210 | 3.0 | 7.0 | 0.00 | 0.00 | 0.00 | 65 | 1010.8 |
| 20260506011010 | 58 | 207 | 4.0 | 9.0 | 0.00 | 0.00 | 0.00 | 65 | 1010.8 |
| 20260506010942 | 58 | 210 | 4.0 | 9.0 | 0.00 | 0.00 | 0.00 | 65 | 1010.8 |
| 20260506010807 | 58 | 259 | 4.0 | 9.0 | 0.00 | 0.00 | 0.00 | 66 | 1010.8 |
| 20260506010606 | 58 | 243 | 5.0 | 9.0 | 0.00 | 0.00 | 0.00 | 66 | 1010.8 |
| 20260506010411 | 58 | 221 | 5.0 | 9.0 | 0.00 | 0.00 | 0.00 | 66 | 1010.9 |
| 20260506010310 | 58 | 223 | 5.0 | 9.0 | 0.00 | 0.00 | 0.00 | 66 | 1010.8 |
| 20260506005911 | 58 | 214 | 5.0 | 9.0 | 0.00 | 0.00 | 0.00 | 66 | 1010.7 |
| 20260506005808 | 58 | 228 | 5.0 | 9.0 | 0.00 | 0.00 | 0.00 | 66 | 1010.7 |
| 20260506005606 | 58 | 266 | 5.0 | 9.0 | 0.00 | 0.00 | 0.00 | 66 | 1010.8 |
| 20260506005422 | 58 | 219 | 4.0 | 9.0 | 0.00 | 0.00 | 0.00 | 66 | 1010.8 |
| 20260506005406 | 58 | 227 | 4.0 | 9.0 | 0.00 | 0.00 | 0.00 | 66 | 1010.8 |
| 20260506005209 | 58 | 238 | 4.0 | 8.0 | 0.00 | 0.00 | 0.00 | 66 | 1010.8 |
| 20260506005006 | 58 | 235 | 3.0 | 8.0 | 0.00 | 0.00 | 0.00 | 66 | 1010.8 |
| 20260506004910 | 58 | 251 | 3.0 | 8.0 | 0.00 | 0.00 | 0.00 | 66 | 1010.8 |
| 20260506004805 | 58 | 227 | 3.0 | 8.0 | 0.00 | 0.00 | 0.00 | 66 | 1010.8 |
| 20260506004604 | 58 | 212 | 3.0 | 8.0 | 0.00 | 0.00 | 0.00 | 66 | 1010.8 |
| 20260506004405 | 58 | 238 | 3.0 | 8.0 | 0.00 | 0.00 | 0.00 | 66 | 1010.8 |
| 20260506004304 | 58 | 207 | 3.0 | 8.0 | 0.00 | 0.00 | 0.00 | 66 | 1010.8 |
| 20260506004207 | 58 | 228 | 3.0 | 8.0 | 0.00 | 0.00 | 0.00 | 66 | 1010.8 |
| 20260506003817 | 58 | 217 | 3.0 | 8.0 | 0.00 | 0.00 | 0.00 | 66 | 1010.7 |
| 20260506003719 | 59 | 248 | 2.0 | 7.0 | 0.00 | 0.00 | 0.00 | 66 | 1010.8 |
| 20260506003632 | 59 | 232 | 2.0 | 7.0 | 0.00 | 0.00 | 0.00 | 66 | 1010.8 |
| 20260506003312 | 59 | 265 | 2.0 | 7.0 | 0.00 | 0.00 | 0.00 | 67 | 1010.8 |
| 20260506003215 | 59 | 302 | 1.0 | 7.0 | 0.00 | 0.00 | 0.00 | 67 | 1010.7 |
| 20260506003150 | 59 | 242 | 1.0 | 7.0 | 0.00 | 0.00 | 0.00 | 67 | 1010.7 |
| 20260506002418 | 58 | 221 | 2.0 | 7.0 | 0.00 | 0.00 | 0.00 | 68 | 1010.7 |
| 20260506002402 | 58 | 222 | 2.0 | 7.0 | 0.00 | 0.00 | 0.00 | 68 | 1010.7 |
| 20260506002201 | 58 | 251 | 2.0 | 8.0 | 0.00 | 0.00 | 0.00 | 68 | 1010.7 |
| 20260506002001 | 58 | 206 | 3.0 | 8.0 | 0.00 | 0.00 | 0.00 | 68 | 1010.8 |
| 20260506001913 | 58 | 206 | 3.0 | 8.0 | 0.00 | 0.00 | 0.00 | 67 | 1010.8 |
| 20260506001807 | 58 | 235 | 2.0 | 8.0 | 0.00 | 0.00 | 0.00 | 67 | 1010.8 |
| 20260506001712 | 58 | 241 | 2.0 | 8.0 | 0.00 | 0.00 | 0.00 | 67 | 1010.7 |
| 20260506001626 | 59 | 205 | 2.0 | 8.0 | 0.00 | 0.00 | 0.00 | 67 | 1010.7 |
| 20260506001202 | 59 | 243 | 1.0 | 6.0 | 0.00 | 0.00 | 0.00 | 67 | 1010.7 |
| 20260506001001 | 59 | 270 | 1.0 | 5.0 | 0.00 | 0.00 | 0.00 | 66 | 1010.7 |
| 20260506000924 | 59 | 240 | 1.0 | 5.0 | 0.00 | 0.00 | 0.00 | 66 | 1010.6 |
| 20260506000802 | 59 | 275 | 1.0 | 4.0 | 0.00 | 0.00 | 0.00 | 66 | 1010.7 |
| 20260506000559 | 59 | 277 | 1.0 | 6.0 | 0.00 | 0.00 | 0.00 | 65 | 1010.7 |
| 20260506000416 | 59 | 282 | 2.0 | 9.0 | 0.00 | 0.00 | 0.00 | 65 | 1010.7 |
| 20260506000401 | 59 | 282 | 2.0 | 9.0 | 0.00 | 0.00 | 0.00 | 65 | 1010.7 |
| 20260506000309 | 59 | 282 | 3.0 | 9.0 | 0.00 | 0.00 | 0.00 | 65 | 1010.8 |
| 20260505235910 | 58 | 283 | 4.0 | 9.0 | 0.00 | 0.00 | 0.00 | 65 | 1010.8 |
| 20260505235803 | 58 | 282 | 4.0 | 9.0 | 0.00 | 0.00 | 0.00 | 65 | 1010.8 |
| 20260505235645 | 58 | 176 | 4.0 | 9.0 | 0.00 | 0.00 | 0.00 | 65 | 1010.8 |
| 20260505235556 | 58 | 206 | 4.0 | 8.0 | 0.00 | 0.00 | 0.00 | 65 | 1010.8 |
| 20260505235547 | 58 | 217 | 4.0 | 8.0 | 0.00 | 0.00 | 0.00 | 65 | 1010.8 |
| 20260505235455 | 58 | 259 | 4.0 | 8.0 | 0.00 | 0.00 | 0.00 | 65 | 1010.8 |
| 20260505234820 | 58 | 244 | 3.0 | 8.0 | 0.00 | 0.00 | 0.00 | 66 | 1010.8 |
| 20260505234715 | 59 | 213 | 2.0 | 8.0 | 0.00 | 0.00 | 0.00 | 66 | 1010.7 |
| 20260505234401 | 59 | 215 | 1.0 | 8.0 | 0.00 | 0.00 | 0.00 | 66 | 1010.7 |
| 20260505234201 | 59 | 228 | 0.0 | 8.0 | 0.00 | 0.00 | 0.00 | 66 | 1010.7 |
| 20260505234001 | 58 | 234 | 0.0 | 0.0 | 0.00 | 0.00 | 0.00 | 67 | 1010.6 |
| 20260505233909 | 58 | 234 | 0.0 | 0.0 | 0.00 | 0.00 | 0.00 | 67 | 1010.6 |
| 20260505233759 | 58 | 234 | 0.0 | 7.0 | 0.00 | 0.00 | 0.00 | 67 | 1010.6 |
| 20260505233601 | 58 | 234 | 1.0 | 7.0 | 0.00 | 0.00 | 0.00 | 67 | 1010.6 |
| 20260505233414 | 58 | 234 | 1.0 | 7.0 | 0.00 | 0.00 | 0.00 | 67 | 1010.7 |
| 20260505233359 | 58 | 234 | 1.0 | 7.0 | 0.00 | 0.00 | 0.00 | 67 | 1010.7 |
| 20260505233203 | 58 | 234 | 1.0 | 7.0 | 0.00 | 0.00 | 0.00 | 67 | 1010.7 |
| 20260505233001 | 58 | 236 | 1.0 | 7.0 | 0.00 | 0.00 | 0.00 | 67 | 1010.8 |
| 20260505232907 | 58 | 236 | 1.0 | 7.0 | 0.00 | 0.00 | 0.00 | 67 | 1010.7 |
| 20260505232800 | 58 | 221 | 1.0 | 6.0 | 0.00 | 0.00 | 0.00 | 67 | 1010.8 |
| 20260505232559 | 59 | 236 | 0.0 | 6.0 | 0.00 | 0.00 | 0.00 | 67 | 1010.8 |
| 20260505232415 | 59 | 260 | 0.0 | 0.0 | 0.00 | 0.00 | 0.00 | 66 | 1010.7 |
| 20260505232402 | 59 | 260 | 0.0 | 0.0 | 0.00 | 0.00 | 0.00 | 66 | 1010.7 |
| 20260505232305 | 59 | 259 | 0.0 | 0.0 | 0.00 | 0.00 | 0.00 | 66 | 1010.6 |
| 20260505231907 | 59 | 253 | 0.0 | 0.0 | 0.00 | 0.00 | 0.00 | 66 | 1010.6 |
| 20260505231805 | 59 | 251 | 0.0 | 0.0 | 0.00 | 0.00 | 0.00 | 66 | 1010.6 |
| 20260505231706 | 59 | 253 | 0.0 | 0.0 | 0.00 | 0.00 | 0.00 | 66 | 1010.7 |
| 20260505231356 | 59 | 225 | 0.0 | 0.0 | 0.00 | 0.00 | 0.00 | 66 | 1010.7 |
| 20260505231244 | 59 | 222 | 0.0 | 0.0 | 0.00 | 0.00 | 0.00 | 65 | 1010.7 |
| 20260505231144 | 59 | 242 | 0.0 | 0.0 | 0.00 | 0.00 | 0.00 | 65 | 1010.7 |
| 20260505230822 | 59 | 259 | 0.0 | 0.0 | 0.00 | 0.00 | 0.00 | 65 | 1010.7 |
| 20260505230558 | 59 | 259 | 0.0 | 0.0 | 0.00 | 0.00 | 0.00 | 65 | 1010.7 |
| 20260505230412 | 59 | 259 | 0.0 | 0.0 | 0.00 | 0.00 | 0.00 | 65 | 1010.7 |
| 20260505230357 | 59 | 259 | 0.0 | 0.0 | 0.00 | 0.00 | 0.00 | 65 | 1010.7 |
| 20260505230241 | 59 | 259 | 0.0 | 0.0 | 0.00 | 0.00 | 0.00 | 65 | 1010.8 |
| 20260505230145 | 59 | 254 | 0.0 | 0.0 | 0.00 | 0.00 | 0.00 | 65 | 1010.7 |
| 20260505225757 | 59 | 254 | 0.0 | 0.0 | 0.00 | 0.00 | 0.00 | 65 | 1010.7 |
| 20260505225556 | 59 | 254 | 0.0 | 0.0 | 0.00 | 0.00 | 0.00 | 65 | 1010.7 |
| 20260505225411 | 59 | 254 | 0.0 | 0.0 | 0.00 | 0.00 | 0.00 | 65 | 1010.7 |
| 20260505225356 | 59 | 254 | 0.0 | 0.0 | 0.00 | 0.00 | 0.00 | 65 | 1010.7 |
| 20260505225212 | 59 | 254 | 0.0 | 0.0 | 0.00 | 0.00 | 0.00 | 65 | 1010.8 |
| 20260505225118 | 59 | 254 | 0.0 | 0.0 | 0.00 | 0.00 | 0.00 | 65 | 1010.8 |
| 20260505225050 | 59 | 244 | 0.0 | 0.0 | 0.00 | 0.00 | 0.00 | 65 | 1010.7 |
| 20260505224705 | 60 | 282 | 0.0 | 0.0 | 0.00 | 0.00 | 0.00 | 65 | 1010.8 |
| 20260505224358 | 60 | 269 | 0.0 | 0.0 | 0.00 | 0.00 | 0.00 | 65 | 1010.8 |
| 20260505224156 | 60 | 263 | 0.0 | 0.0 | 0.00 | 0.00 | 0.00 | 66 | 1010.8 |
| 20260505223957 | 61 | 263 | 0.0 | 0.0 | 0.00 | 0.00 | 0.00 | 66 | 1010.8 |
| 20260505223908 | 61 | 263 | 0.0 | 0.0 | 0.00 | 0.00 | 0.00 | 67 | 1010.8 |
| 20260505223816 | 61 | 261 | 0.0 | 0.0 | 0.00 | 0.00 | 0.00 | 68 | 1010.8 |
| 20260505223556 | 61 | 124 | 0.0 | 0.0 | 0.00 | 0.00 | 0.00 | 70 | 1010.8 |
| 20260505223412 | 61 | 124 | 0.0 | 0.0 | 0.00 | 0.00 | 0.00 | 71 | 1010.8 |
| 20260505223358 | 61 | 124 | 0.0 | 0.0 | 0.00 | 0.00 | 0.00 | 71 | 1010.8 |
| 20260505223157 | 61 | 124 | 0.0 | 0.0 | 0.00 | 0.00 | 0.00 | 72 | 1010.8 |
| 20260505223005 | 61 | 124 | 0.0 | 0.0 | 0.00 | 0.00 | 0.00 | 72 | 1010.8 |
| 20260505222935 | 61 | 124 | 0.0 | 0.0 | 0.00 | 0.00 | 0.00 | 72 | 1010.7 |
| 20260505222901 | 61 | 124 | 0.0 | 0.0 | 0.00 | 0.00 | 0.00 | 72 | 1010.7 |
| 20260505222415 | 61 | 134 | 0.0 | 0.0 | 0.00 | 0.00 | 0.00 | 72 | 1010.7 |
| 20260505222357 | 61 | 134 | 0.0 | 0.0 | 0.00 | 0.00 | 0.00 | 72 | 1010.7 |
| 20260505222155 | 62 | 138 | 0.0 | 0.0 | 0.00 | 0.00 | 0.00 | 72 | 1010.6 |
| 20260505221957 | 62 | 132 | 0.0 | 0.0 | 0.00 | 0.00 | 0.00 | 72 | 1010.7 |
| 20260505221908 | 62 | 121 | 0.0 | 0.0 | 0.00 | 0.00 | 0.00 | 72 | 1010.7 |
| 20260505221756 | 62 | 92 | 0.0 | 0.0 | 0.00 | 0.00 | 0.00 | 72 | 1010.7 |
| 20260505221556 | 62 | 98 | 0.0 | 0.0 | 0.00 | 0.00 | 0.00 | 72 | 1010.7 |
| 20260505221504 | 62 | 98 | 0.0 | 0.0 | 0.00 | 0.00 | 0.00 | 72 | 1010.7 |
| 20260505221454 | 62 | 98 | 0.0 | 0.0 | 0.00 | 0.00 | 0.00 | 72 | 1010.7 |
| 20260505220958 | 62 | 70 | 1.0 | 7.0 | 0.00 | 0.00 | 0.00 | 72 | 1010.7 |
| 20260505220906 | 62 | 64 | 2.0 | 8.0 | 0.00 | 0.00 | 0.00 | 71 | 1010.6 |
| 20260505220800 | 62 | 64 | 2.0 | 9.0 | 0.00 | 0.00 | 0.00 | 71 | 1010.7 |
| 20260505220557 | 62 | 56 | 2.0 | 9.0 | 0.00 | 0.00 | 0.00 | 72 | 1010.7 |
| 20260505220410 | 62 | 115 | 2.0 | 9.0 | 0.00 | 0.00 | 0.00 | 71 | 1010.6 |
| 20260505220356 | 62 | 115 | 2.0 | 9.0 | 0.00 | 0.00 | 0.00 | 71 | 1010.6 |
| 20260505220157 | 62 | 126 | 2.0 | 9.0 | 0.00 | 0.00 | 0.00 | 71 | 1010.6 |
| 20260505215959 | 62 | 130 | 1.0 | 9.0 | 0.00 | 0.00 | 0.00 | 71 | 1010.6 |
| 20260505215905 | 62 | 137 | 0.0 | 9.0 | 0.00 | 0.00 | 0.00 | 71 | 1010.6 |
| 20260505215759 | 62 | 135 | 0.0 | 7.0 | 0.00 | 0.00 | 0.00 | 71 | 1010.5 |
| 20260505215552 | 62 | 136 | 0.0 | 0.0 | 0.00 | 0.00 | 0.00 | 70 | 1010.5 |
| 20260505215409 | 63 | 136 | 0.0 | 0.0 | 0.00 | 0.00 | 0.00 | 70 | 1010.5 |
| 20260505215353 | 62 | 136 | 0.0 | 0.0 | 0.00 | 0.00 | 0.00 | 70 | 1010.5 |
| 20260505215153 | 63 | 148 | 0.0 | 0.0 | 0.00 | 0.00 | 0.00 | 70 | 1010.5 |
| 20260505214952 | 63 | 148 | 1.0 | 5.0 | 0.00 | 0.00 | 0.00 | 70 | 1010.5 |
| 20260505214907 | 63 | 159 | 1.0 | 5.0 | 0.00 | 0.00 | 0.00 | 70 | 1010.5 |
| 20260505214751 | 63 | 159 | 2.0 | 8.0 | 0.00 | 0.00 | 0.00 | 69 | 1010.5 |
| 20260505214553 | 63 | 138 | 2.0 | 8.0 | 0.00 | 0.00 | 0.00 | 68 | 1010.5 |
| 20260505214409 | 63 | 138 | 2.0 | 8.0 | 0.00 | 0.00 | 0.00 | 68 | 1010.5 |
| 20260505214353 | 63 | 138 | 2.0 | 8.0 | 0.00 | 0.00 | 0.00 | 68 | 1010.5 |
| 20260505214153 | 63 | 136 | 2.0 | 8.0 | 0.00 | 0.00 | 0.00 | 68 | 1010.5 |
| 20260505213952 | 64 | 128 | 1.0 | 8.0 | 0.00 | 0.00 | 0.00 | 67 | 1010.5 |
| 20260505213904 | 64 | 134 | 0.0 | 8.0 | 0.00 | 0.00 | 0.00 | 66 | 1010.4 |
| 20260505213751 | 64 | 149 | 0.0 | 6.0 | 0.00 | 0.00 | 0.00 | 66 | 1010.4 |
| 20260505213556 | 64 | 190 | 0.0 | 0.0 | 0.00 | 0.00 | 0.00 | 65 | 1010.4 |
| 20260505213503 | 64 | 211 | 0.0 | 0.0 | 0.00 | 0.00 | 0.00 | 64 | 1010.4 |
| 20260505213452 | 64 | 211 | 0.0 | 0.0 | 0.00 | 0.00 | 0.00 | 64 | 1010.4 |
| 20260505212952 | 64 | 211 | 0.0 | 0.0 | 0.00 | 0.00 | 0.00 | 61 | 1010.4 |
| 20260505212907 | 64 | 211 | 0.0 | 0.0 | 0.00 | 0.00 | 0.00 | 62 | 1010.4 |
| 20260505212751 | 64 | 211 | 0.0 | 0.0 | 0.00 | 0.00 | 0.00 | 61 | 1010.3 |
| 20260505212553 | 64 | 211 | 0.0 | 0.0 | 0.00 | 0.00 | 0.00 | 60 | 1010.2 |
| 20260505212411 | 64 | 216 | 0.0 | 0.0 | 0.00 | 0.00 | 0.00 | 60 | 1010.2 |
| 20260505212354 | 64 | 220 | 0.0 | 0.0 | 0.00 | 0.00 | 0.00 | 60 | 1010.2 |
| 20260505212202 | 64 | 220 | 0.0 | 3.0 | 0.00 | 0.00 | 0.00 | 60 | 1010.2 |
| 20260505212104 | 64 | 220 | 2.0 | 13.0 | 0.00 | 0.00 | 0.00 | 61 | 1010.2 |
| 20260505212032 | 64 | 220 | 2.0 | 13.0 | 0.00 | 0.00 | 0.00 | 61 | 1010.1 |
| 20260505212000 | 64 | 228 | 3.0 | 13.0 | 0.00 | 0.00 | 0.00 | 61 | 1010.2 |
| 20260505211349 | 64 | 290 | 5.0 | 13.0 | 0.00 | 0.00 | 0.00 | 62 | 1010.0 |
| 20260505211148 | 64 | 287 | 6.0 | 13.0 | 0.00 | 0.00 | 0.00 | 64 | 1010.0 |
| 20260505210945 | 64 | 236 | 6.0 | 12.0 | 0.00 | 0.00 | 0.00 | 64 | 1010.0 |
| 20260505210904 | 64 | 326 | 6.0 | 12.0 | 0.00 | 0.00 | 0.00 | 64 | 1010.0 |
| 20260505210757 | 64 | 278 | 6.0 | 12.0 | 0.00 | 0.00 | 0.00 | 64 | 1010.0 |
| 20260505210627 | 64 | 322 | 6.0 | 12.0 | 0.00 | 0.00 | 0.00 | 64 | 1010.0 |
| 20260505210537 | 64 | 343 | 6.0 | 11.0 | 0.00 | 0.00 | 0.00 | 64 | 1010.0 |
| 20260505210525 | 64 | 307 | 6.0 | 11.0 | 0.00 | 0.00 | 0.00 | 64 | 1010.0 |
| 20260505210431 | 65 | 316 | 6.0 | 12.0 | 0.00 | 0.00 | 0.00 | 65 | 1010.0 |
| 20260505210332 | 65 | 327 | 6.0 | 12.0 | 0.00 | 0.00 | 0.00 | 64 | 1009.8 |
| 20260505205702 | 65 | 308 | 5.0 | 12.0 | 0.00 | 0.00 | 0.00 | 64 | 1009.8 |
| 20260505205614 | 65 | 328 | 5.0 | 12.0 | 0.00 | 0.00 | 0.00 | 64 | 1009.8 |
| 20260505205146 | 65 | 296 | 4.0 | 12.0 | 0.00 | 0.00 | 0.00 | 64 | 1009.8 |
| 20260505204945 | 65 | 332 | 3.0 | 12.0 | 0.00 | 0.00 | 0.00 | 64 | 1009.8 |
| 20260505204907 | 65 | 324 | 2.0 | 12.0 | 0.00 | 0.00 | 0.00 | 64 | 1009.8 |
| 20260505204802 | 65 | 317 | 2.0 | 10.0 | 0.00 | 0.00 | 0.00 | 64 | 1009.8 |
| 20260505204701 | 65 | 347 | 2.0 | 10.0 | 0.00 | 0.00 | 0.00 | 63 | 1009.7 |
| 20260505204344 | 65 | 305 | 2.0 | 8.0 | 0.00 | 0.00 | 0.00 | 62 | 1009.8 |
| 20260505204141 | 65 | 7 | 2.0 | 8.0 | 0.00 | 0.00 | 0.00 | 60 | 1009.8 |
| 20260505203942 | 65 | 319 | 2.0 | 8.0 | 0.00 | 0.00 | 0.00 | 59 | 1009.7 |
| 20260505203907 | 65 | 313 | 2.0 | 8.0 | 0.00 | 0.00 | 0.00 | 60 | 1009.8 |
| 20260505203815 | 65 | 290 | 2.0 | 8.0 | 0.00 | 0.00 | 0.00 | 60 | 1009.7 |
| 20260505203725 | 65 | 296 | 2.0 | 8.0 | 0.00 | 0.00 | 0.00 | 60 | 1009.6 |
| 20260505203639 | 65 | 334 | 3.0 | 9.0 | 0.00 | 0.00 | 0.00 | 60 | 1009.6 |
| 20260505203142 | 65 | 311 | 3.0 | 9.0 | 0.00 | 0.00 | 0.00 | 60 | 1009.6 |
| 20260505202952 | 66 | 327 | 4.0 | 12.0 | 0.00 | 0.00 | 0.00 | 59 | 1009.6 |
| 20260505202923 | 66 | 292 | 4.0 | 12.0 | 0.00 | 0.00 | 0.00 | 59 | 1009.6 |
| 20260505202843 | 66 | 286 | 4.0 | 12.0 | 0.00 | 0.00 | 0.00 | 60 | 1009.6 |
| 20260505202405 | 66 | 309 | 5.0 | 12.0 | 0.00 | 0.00 | 0.00 | 59 | 1009.6 |
| 20260505202339 | 66 | 333 | 5.0 | 12.0 | 0.00 | 0.00 | 0.00 | 58 | 1009.6 |
| 20260505202203 | 66 | 309 | 4.0 | 12.0 | 0.00 | 0.00 | 0.00 | 57 | 1009.5 |
| 20260505202104 | 66 | 322 | 4.0 | 11.0 | 0.00 | 0.00 | 0.00 | 53 | 1009.5 |
| 20260505202039 | 67 | 345 | 4.0 | 11.0 | 0.00 | 0.00 | 0.00 | 53 | 1009.6 |
| 20260505201602 | 67 | 311 | 2.0 | 11.0 | 0.00 | 0.00 | 0.00 | 52 | 1009.6 |
| 20260505201513 | 67 | 346 | 2.0 | 11.0 | 0.00 | 0.00 | 0.00 | 48 | 1009.6 |
| 20260505201457 | 67 | 332 | 2.0 | 10.0 | 0.00 | 0.00 | 0.00 | 47 | 1009.6 |
| 20260505201056 | 68 | 315 | 1.0 | 6.0 | 0.00 | 0.00 | 0.00 | 46 | 1009.5 |
| 20260505201034 | 68 | 325 | 1.0 | 6.0 | 0.00 | 0.00 | 0.00 | 46 | 1009.5 |
| 20260505200633 | 69 | 312 | 1.0 | 5.0 | 0.00 | 0.00 | 0.00 | 44 | 1009.4 |
| 20260505200548 | 69 | 305 | 1.0 | 5.0 | 0.00 | 0.00 | 0.00 | 44 | 1009.4 |
| 20260505200532 | 69 | 315 | 1.0 | 4.0 | 0.00 | 0.00 | 0.00 | 44 | 1009.4 |
| 20260505200437 | 69 | 308 | 1.0 | 4.0 | 0.00 | 0.00 | 0.00 | 43 | 1009.3 |
| 20260505200049 | 69 | 337 | 1.0 | 4.0 | 0.00 | 0.00 | 0.00 | 43 | 1009.3 |
| 20260505195535 | 70 | 340 | 2.0 | 11.0 | 0.00 | 0.00 | 0.00 | 41 | 1009.3 |
| 20260505195446 | 70 | 336 | 2.0 | 11.0 | 0.00 | 0.00 | 0.00 | 41 | 1009.3 |
| 20260505195428 | 70 | 1 | 2.0 | 11.0 | 0.00 | 0.00 | 0.00 | 41 | 1009.3 |
| 20260505194936 | 70 | 308 | 2.0 | 11.0 | 0.00 | 0.00 | 0.00 | 40 | 1009.3 |
| 20260505194910 | 70 | 308 | 2.0 | 11.0 | 0.00 | 0.00 | 0.00 | 40 | 1009.2 |
| 20260505194728 | 70 | 333 | 2.0 | 11.0 | 0.00 | 0.00 | 0.00 | 41 | 1009.3 |
| 20260505194528 | 70 | 284 | 1.0 | 8.0 | 0.00 | 0.00 | 0.00 | 40 | 1009.3 |
| 20260505194406 | 70 | 298 | 1.0 | 8.0 | 0.00 | 0.00 | 0.00 | 39 | 1009.2 |
| 20260505194328 | 70 | 298 | 1.0 | 8.0 | 0.00 | 0.00 | 0.00 | 39 | 1009.2 |
| 20260505194128 | 70 | 298 | 1.0 | 8.0 | 0.00 | 0.00 | 0.00 | 39 | 1009.0 |
| 20260505193924 | 70 | 311 | 1.0 | 8.0 | 0.00 | 0.00 | 0.00 | 39 | 1009.0 |
| 20260505193906 | 70 | 307 | 1.0 | 8.0 | 0.00 | 0.00 | 0.00 | 39 | 1008.9 |
| 20260505193718 | 71 | 339 | 1.0 | 8.0 | 0.00 | 0.00 | 0.00 | 39 | 1009.0 |
| 20260505193520 | 71 | 309 | 0.0 | 4.0 | 0.00 | 0.00 | 0.00 | 38 | 1008.9 |
| 20260505193403 | 71 | 253 | 1.0 | 4.0 | 0.00 | 0.00 | 0.00 | 37 | 1008.8 |
| 20260505193320 | 71 | 253 | 1.0 | 5.0 | 0.00 | 0.00 | 0.00 | 38 | 1008.8 |
| 20260505193128 | 71 | 253 | 1.0 | 6.0 | 0.00 | 0.00 | 0.00 | 37 | 1008.7 |
| 20260505192953 | 71 | 253 | 2.0 | 6.0 | 0.00 | 0.00 | 0.00 | 36 | 1008.7 |
| 20260505192940 | 71 | 253 | 2.0 | 6.0 | 0.00 | 0.00 | 0.00 | 37 | 1008.7 |
| 20260505192848 | 71 | 253 | 2.0 | 6.0 | 0.00 | 0.00 | 0.00 | 37 | 1008.7 |
| 20260505192757 | 71 | 255 | 3.0 | 8.0 | 0.00 | 0.00 | 0.00 | 37 | 1008.8 |
| 20260505192451 | 71 | 209 | 4.0 | 9.0 | 0.00 | 0.00 | 0.00 | 37 | 1008.7 |
| 20260505192050 | 71 | 271 | 4.0 | 9.0 | 0.00 | 0.00 | 0.00 | 36 | 1008.7 |
| 20260505192043 | 71 | 269 | 4.0 | 9.0 | 0.00 | 0.00 | 0.00 | 36 | 1008.7 |
| 20260505191945 | 71 | 234 | 4.0 | 9.0 | 0.00 | 0.00 | 0.00 | 36 | 1008.6 |
| 20260505191611 | 71 | 175 | 4.0 | 9.0 | 0.00 | 0.00 | 0.00 | 36 | 1008.6 |
| 20260505191238 | 71 | 230 | 4.0 | 8.0 | 0.00 | 0.00 | 0.00 | 36 | 1008.6 |
| 20260505190918 | 71 | 196 | 4.0 | 10.0 | 0.00 | 0.00 | 0.00 | 36 | 1008.6 |
| 20260505190821 | 72 | 246 | 5.0 | 10.0 | 0.00 | 0.00 | 0.00 | 37 | 1008.5 |
| 20260505190437 | 72 | 230 | 5.0 | 10.0 | 0.00 | 0.00 | 0.00 | 36 | 1008.5 |
| 20260505190409 | 72 | 244 | 5.0 | 10.0 | 0.00 | 0.00 | 0.00 | 36 | 1008.6 |
| 20260505185911 | 72 | 222 | 5.0 | 12.0 | 0.00 | 0.00 | 0.00 | 36 | 1008.5 |
| 20260505185906 | 72 | 193 | 5.0 | 12.0 | 0.00 | 0.00 | 0.00 | 36 | 1008.5 |
| 20260505185743 | 72 | 152 | 5.0 | 12.0 | 0.00 | 0.00 | 0.00 | 36 | 1008.5 |
| 20260505185643 | 72 | 213 | 5.0 | 12.0 | 0.00 | 0.00 | 0.00 | 36 | 1008.5 |
| 20260505185308 | 72 | 179 | 5.0 | 12.0 | 0.00 | 0.00 | 0.00 | 36 | 1008.4 |
| 20260505185106 | 72 | 228 | 5.0 | 10.0 | 0.00 | 0.00 | 0.00 | 36 | 1008.5 |
| 20260505184920 | 72 | 221 | 5.0 | 10.0 | 0.00 | 0.00 | 0.00 | 36 | 1008.4 |
| 20260505184819 | 72 | 197 | 6.0 | 10.0 | 0.00 | 0.00 | 0.00 | 36 | 1008.4 |
| 20260505184729 | 72 | 199 | 6.0 | 10.0 | 0.00 | 0.00 | 0.00 | 36 | 1008.3 |
| 20260505184656 | 72 | 184 | 5.0 | 10.0 | 0.00 | 0.00 | 0.00 | 36 | 1008.4 |
| 20260505184324 | 72 | 229 | 4.0 | 10.0 | 0.00 | 0.00 | 0.00 | 36 | 1008.4 |
| 20260505184016 | 72 | 233 | 3.0 | 10.0 | 0.00 | 0.00 | 0.00 | 36 | 1008.3 |
| 20260505183506 | 72 | 244 | 2.0 | 9.0 | 0.00 | 0.00 | 0.00 | 36 | 1008.3 |
| 20260505183403 | 73 | 246 | 3.0 | 9.0 | 0.00 | 0.00 | 0.00 | 36 | 1008.3 |
| 20260505183328 | 73 | 271 | 3.0 | 13.0 | 0.00 | 0.00 | 0.00 | 36 | 1008.3 |
| 20260505183237 | 73 | 266 | 4.0 | 13.0 | 0.00 | 0.00 | 0.00 | 36 | 1008.3 |
| 20260505182927 | 73 | 201 | 5.0 | 13.0 | 0.00 | 0.00 | 0.00 | 35 | 1008.2 |
| 20260505182708 | 73 | 191 | 6.0 | 13.0 | 0.00 | 0.00 | 0.00 | 36 | 1008.1 |
| 20260505182505 | 73 | 183 | 7.0 | 13.0 | 0.00 | 0.00 | 0.00 | 35 | 1008.1 |
| 20260505182403 | 73 | 175 | 7.0 | 13.0 | 0.00 | 0.00 | 0.00 | 35 | 1008.2 |
| 20260505182306 | 73 | 192 | 7.0 | 12.0 | 0.00 | 0.00 | 0.00 | 35 | 1008.1 |
| 20260505182104 | 73 | 201 | 8.0 | 13.0 | 0.00 | 0.00 | 0.00 | 35 | 1008.1 |
| 20260505181920 | 73 | 182 | 8.0 | 13.0 | 0.00 | 0.00 | 0.00 | 35 | 1008.1 |
| 20260505181908 | 73 | 182 | 8.0 | 13.0 | 0.00 | 0.00 | 0.00 | 35 | 1008.1 |
| 20260505181718 | 73 | 225 | 9.0 | 15.0 | 0.00 | 0.00 | 0.00 | 36 | 1008.0 |
| 20260505181620 | 73 | 195 | 9.0 | 15.0 | 0.00 | 0.00 | 0.00 | 36 | 1008.1 |
| 20260505181549 | 73 | 198 | 9.0 | 15.0 | 0.00 | 0.00 | 0.00 | 36 | 1007.9 |
| 20260505181104 | 73 | 194 | 9.0 | 15.0 | 0.00 | 0.00 | 0.00 | 36 | 1007.9 |
| 20260505180907 | 73 | 188 | 8.0 | 15.0 | 0.00 | 0.00 | 0.00 | 36 | 1007.9 |
| 20260505180704 | 72 | 214 | 8.0 | 15.0 | 0.00 | 0.00 | 0.00 | 37 | 1007.8 |
| 20260505180504 | 72 | 221 | 7.0 | 15.0 | 0.00 | 0.00 | 0.00 | 37 | 1007.8 |
| 20260505180401 | 72 | 154 | 7.0 | 15.0 | 0.00 | 0.00 | 0.00 | 37 | 1007.8 |
| 20260505180305 | 72 | 167 | 7.0 | 15.0 | 0.00 | 0.00 | 0.00 | 37 | 1007.7 |
| 20260505175921 | 72 | 197 | 7.0 | 15.0 | 0.00 | 0.00 | 0.00 | 38 | 1007.8 |
| 20260505175739 | 72 | 242 | 7.0 | 14.0 | 0.00 | 0.00 | 0.00 | 38 | 1007.7 |
| 20260505175644 | 72 | 174 | 8.0 | 14.0 | 0.00 | 0.00 | 0.00 | 38 | 1007.8 |
| 20260505175305 | 72 | 212 | 8.0 | 12.0 | 0.00 | 0.00 | 0.00 | 39 | 1007.7 |
| 20260505175101 | 72 | 180 | 8.0 | 13.0 | 0.00 | 0.00 | 0.00 | 39 | 1007.8 |
| 20260505174908 | 72 | 213 | 8.0 | 13.0 | 0.00 | 0.00 | 0.00 | 39 | 1007.8 |
| 20260505174607 | 72 | 222 | 8.0 | 15.0 | 0.00 | 0.00 | 0.00 | 39 | 1007.8 |
| 20260505174544 | 72 | 181 | 8.0 | 15.0 | 0.00 | 0.00 | 0.00 | 39 | 1007.8 |
| 20260505174407 | 72 | 196 | 8.0 | 15.0 | 0.00 | 0.00 | 0.00 | 39 | 1007.7 |
| 20260505174207 | 72 | 178 | 8.0 | 15.0 | 0.00 | 0.00 | 0.00 | 39 | 1007.7 |
| 20260505174044 | 72 | 217 | 8.0 | 15.0 | 0.00 | 0.00 | 0.00 | 38 | 1007.8 |
| 20260505174014 | 72 | 194 | 8.0 | 15.0 | 0.00 | 0.00 | 0.00 | 38 | 1007.8 |
| 20260505173917 | 73 | 205 | 8.0 | 12.0 | 0.00 | 0.00 | 0.00 | 38 | 1007.8 |
| 20260505173545 | 73 | 176 | 8.0 | 12.0 | 0.00 | 0.00 | 0.00 | 38 | 1007.8 |
| 20260505173406 | 73 | 201 | 8.0 | 12.0 | 0.00 | 0.00 | 0.00 | 38 | 1008.0 |
| 20260505173204 | 73 | 207 | 7.0 | 12.0 | 0.00 | 0.00 | 0.00 | 37 | 1007.9 |
| 20260505173044 | 73 | 195 | 7.0 | 12.0 | 0.00 | 0.00 | 0.00 | 37 | 1007.9 |
| 20260505173007 | 73 | 194 | 7.0 | 12.0 | 0.00 | 0.00 | 0.00 | 37 | 1007.9 |
| 20260505172805 | 73 | 193 | 5.0 | 11.0 | 0.00 | 0.00 | 0.00 | 37 | 1008.0 |
| 20260505172605 | 73 | 146 | 4.0 | 11.0 | 0.00 | 0.00 | 0.00 | 37 | 1008.0 |
| 20260505172546 | 73 | 170 | 4.0 | 11.0 | 0.00 | 0.00 | 0.00 | 37 | 1008.0 |
| 20260505172415 | 74 | 209 | 4.0 | 11.0 | 0.00 | 0.00 | 0.00 | 38 | 1007.9 |
| 20260505172314 | 74 | 186 | 4.0 | 9.0 | 0.00 | 0.00 | 0.00 | 39 | 1008.0 |
| 20260505172239 | 74 | 235 | 3.0 | 9.0 | 0.00 | 0.00 | 0.00 | 38 | 1008.0 |
| 20260505171801 | 74 | 243 | 3.0 | 6.0 | 0.00 | 0.00 | 0.00 | 38 | 1007.8 |
| 20260505171544 | 75 | 252 | 2.0 | 6.0 | 0.00 | 0.00 | 0.00 | 38 | 1008.0 |
| 20260505171400 | 75 | 238 | 2.0 | 6.0 | 0.00 | 0.00 | 0.00 | 38 | 1007.8 |
| 20260505171202 | 75 | 209 | 1.0 | 7.0 | 0.00 | 0.00 | 0.00 | 38 | 1007.9 |
| 20260505171046 | 75 | 219 | 2.0 | 7.0 | 0.00 | 0.00 | 0.00 | 37 | 1007.8 |
| 20260505171000 | 75 | 201 | 2.0 | 7.0 | 0.00 | 0.00 | 0.00 | 38 | 1007.8 |
| 20260505170800 | 75 | 201 | 2.0 | 9.0 | 0.00 | 0.00 | 0.00 | 37 | 1007.8 |
| 20260505170605 | 75 | 220 | 3.0 | 9.0 | 0.00 | 0.00 | 0.00 | 37 | 1007.8 |
| 20260505170551 | 75 | 207 | 3.0 | 9.0 | 0.00 | 0.00 | 0.00 | 37 | 1007.8 |
| 20260505170508 | 75 | 250 | 3.0 | 9.0 | 0.00 | 0.00 | 0.00 | 37 | 1007.9 |
| 20260505170045 | 76 | 236 | 3.0 | 9.0 | 0.00 | 0.00 | 0.00 | 38 | 1007.9 |
| 20260505170001 | 76 | 215 | 3.0 | 9.0 | 0.00 | 0.00 | 0.00 | 37 | 1007.9 |
| 20260505165800 | 76 | 240 | 2.0 | 9.0 | 0.00 | 0.00 | 0.00 | 38 | 1007.9 |
| 20260505165544 | 76 | 238 | 2.0 | 9.0 | 0.00 | 0.00 | 0.00 | 38 | 1007.8 |
| 20260505165414 | 76 | 196 | 1.0 | 6.0 | 0.00 | 0.00 | 0.00 | 38 | 1007.8 |
| 20260505165315 | 77 | 242 | 2.0 | 6.0 | 0.00 | 0.00 | 0.00 | 38 | 1007.8 |
| 20260505165236 | 77 | 254 | 2.0 | 6.0 | 0.00 | 0.00 | 0.00 | 38 | 1007.9 |
| 20260505165215 | 77 | 257 | 3.0 | 6.0 | 0.00 | 0.00 | 0.00 | 38 | 1007.8 |
| 20260505165126 | 77 | 197 | 4.0 | 7.0 | 0.00 | 0.00 | 0.00 | 37 | 1007.8 |
| 20260505164505 | 78 | 180 | 4.0 | 8.0 | 0.00 | 0.00 | 0.00 | 35 | 1007.8 |
| 20260505164043 | 78 | 167 | 3.0 | 8.0 | 0.00 | 0.00 | 0.00 | 35 | 1007.8 |
| 20260505163958 | 78 | 185 | 2.0 | 8.0 | 0.00 | 0.00 | 0.00 | 35 | 1007.9 |
| 20260505163809 | 78 | 209 | 1.0 | 8.0 | 0.00 | 0.00 | 0.00 | 35 | 1007.9 |
| 20260505163703 | 78 | 203 | 1.0 | 5.0 | 0.00 | 0.00 | 0.00 | 35 | 1008.0 |
| 20260505163651 | 79 | 204 | 1.0 | 5.0 | 0.00 | 0.00 | 0.00 | 35 | 1008.0 |
| 20260505163200 | 79 | 186 | 0.0 | 3.0 | 0.00 | 0.00 | 0.00 | 34 | 1007.9 |
| 20260505163054 | 79 | 186 | 0.0 | 0.0 | 0.00 | 0.00 | 0.00 | 34 | 1007.8 |
| 20260505163022 | 79 | 186 | 0.0 | 0.0 | 0.00 | 0.00 | 0.00 | 35 | 1008.0 |
| 20260505162934 | 79 | 122 | 0.0 | 4.0 | 0.00 | 0.00 | 0.00 | 35 | 1007.9 |
| 20260505162802 | 79 | 115 | 0.0 | 4.0 | 0.00 | 0.00 | 0.00 | 35 | 1008.0 |
| 20260505162456 | 79 | 115 | 0.0 | 4.0 | 0.00 | 0.00 | 0.00 | 35 | 1007.8 |
| 20260505162041 | 79 | 134 | 0.0 | 7.0 | 0.00 | 0.00 | 0.00 | 35 | 1007.8 |
| 20260505161957 | 79 | 134 | 1.0 | 7.0 | 0.00 | 0.00 | 0.00 | 35 | 1007.9 |
| 20260505161904 | 79 | 122 | 2.0 | 8.0 | 0.00 | 0.00 | 0.00 | 35 | 1008.0 |
| 20260505161542 | 79 | 117 | 2.0 | 10.0 | 0.00 | 0.00 | 0.00 | 35 | 1008.0 |
| 20260505161355 | 79 | 119 | 2.0 | 10.0 | 0.00 | 0.00 | 0.00 | 35 | 1008.1 |
| 20260505161156 | 79 | 107 | 2.0 | 10.0 | 0.00 | 0.00 | 0.00 | 34 | 1008.1 |
| 20260505161041 | 80 | 115 | 3.0 | 10.0 | 0.00 | 0.00 | 0.00 | 34 | 1008.0 |
| 20260505160955 | 80 | 129 | 3.0 | 10.0 | 0.00 | 0.00 | 0.00 | 34 | 1008.2 |
| 20260505160753 | 80 | 115 | 2.0 | 10.0 | 0.00 | 0.00 | 0.00 | 34 | 1008.1 |
| 20260505160542 | 80 | 148 | 3.0 | 10.0 | 0.00 | 0.00 | 0.00 | 33 | 1008.1 |
| 20260505160429 | 80 | 118 | 3.0 | 10.0 | 0.00 | 0.00 | 0.00 | 33 | 1008.0 |
| 20260505160329 | 80 | 118 | 4.0 | 10.0 | 0.00 | 0.00 | 0.00 | 33 | 1008.1 |
| 20260505160250 | 80 | 119 | 3.0 | 10.0 | 0.00 | 0.00 | 0.00 | 32 | 1008.1 |
| 20260505160227 | 80 | 127 | 3.0 | 10.0 | 0.00 | 0.00 | 0.00 | 32 | 1008.0 |
| 20260505160137 | 81 | 88 | 3.0 | 10.0 | 0.00 | 0.00 | 0.00 | 31 | 1008.2 |
| 20260505153101 | 82 | 144 | 2.0 | 8.0 | 0.00 | 0.00 | 0.00 | 28 | 1008.2 |
| 20260505153008 | 82 | 94 | 2.0 | 8.0 | 0.00 | 0.00 | 0.00 | 28 | 1008.2 |
| 20260505152910 | 82 | 78 | 2.0 | 8.0 | 0.00 | 0.00 | 0.00 | 27 | 1008.2 |
| 20260505152155 | 82 | 120 | 3.0 | 9.0 | 0.00 | 0.00 | 0.00 | 27 | 1008.4 |
| 20260505152037 | 82 | 152 | 2.0 | 9.0 | 0.00 | 0.00 | 0.00 | 27 | 1008.3 |
| 20260505151953 | 82 | 117 | 2.0 | 9.0 | 0.00 | 0.00 | 0.00 | 27 | 1008.3 |
| 20260505151844 | 82 | 156 | 2.0 | 9.0 | 0.00 | 0.00 | 0.00 | 27 | 1008.3 |
| 20260505151745 | 83 | 325 | 2.0 | 9.0 | 0.00 | 0.00 | 0.00 | 27 | 1008.3 |
| 20260505151733 | 83 | 66 | 2.0 | 9.0 | 0.00 | 0.00 | 0.00 | 27 | 1008.3 |
| 20260505151334 | 83 | 97 | 1.0 | 8.0 | 0.00 | 0.00 | 0.00 | 26 | 1008.4 |
| 20260505151017 | 83 | 119 | 1.0 | 7.0 | 0.00 | 0.00 | 0.00 | 26 | 1008.4 |
| 20260505150908 | 83 | 140 | 1.0 | 7.0 | 0.00 | 0.00 | 0.00 | 26 | 1008.3 |
| 20260505150543 | 83 | 351 | 0.0 | 7.0 | 0.00 | 0.00 | 0.00 | 26 | 1008.3 |
| 20260505150455 | 83 | 122 | 0.0 | 4.0 | 0.00 | 0.00 | 0.00 | 26 | 1008.3 |
| 20260505140537 | 84 | 92 | 0.0 | 3.0 | 0.00 | 0.00 | 0.00 | 24 | 1008.7 |
| 20260505140353 | 85 | 111 | 0.0 | 3.0 | 0.00 | 0.00 | 0.00 | 24 | 1008.7 |
| 20260505140259 | 85 | 111 | 0.0 | 3.0 | 0.00 | 0.00 | 0.00 | 24 | 1008.7 |
| 20260505140228 | 85 | 111 | 0.0 | 3.0 | 0.00 | 0.00 | 0.00 | 24 | 1008.8 |
| 20260505130311 | 82 | 97 | 1.0 | 9.0 | 0.00 | 0.00 | 0.00 | 25 | 1009.2 |
| 20260505125030 | 81 | 120 | 1.0 | 10.0 | 0.00 | 0.00 | 0.00 | 26 | 1009.4 |
| 20260505124936 | 81 | 161 | 2.0 | 10.0 | 0.00 | 0.00 | 0.00 | 26 | 1009.4 |
| 20260505124745 | 81 | 165 | 3.0 | 10.0 | 0.00 | 0.00 | 0.00 | 26 | 1009.4 |
| 20260505124645 | 81 | 167 | 3.0 | 10.0 | 0.00 | 0.00 | 0.00 | 26 | 1009.4 |
| 20260505124136 | 81 | 142 | 3.0 | 10.0 | 0.00 | 0.00 | 0.00 | 26 | 1009.5 |
| 20260505124031 | 81 | 169 | 2.0 | 10.0 | 0.00 | 0.00 | 0.00 | 26 | 1009.5 |
| 20260505123935 | 81 | 163 | 2.0 | 10.0 | 0.00 | 0.00 | 0.00 | 26 | 1009.5 |
| 20260505123736 | 81 | 92 | 1.0 | 7.0 | 0.00 | 0.00 | 0.00 | 26 | 1009.4 |
| 20260505123534 | 81 | 26 | 3.0 | 10.0 | 0.00 | 0.00 | 0.00 | 26 | 1009.4 |
| 20260505123353 | 81 | 236 | 3.0 | 10.0 | 0.00 | 0.00 | 0.00 | 25 | 1009.4 |
| 20260505123302 | 81 | 180 | 3.0 | 10.0 | 0.00 | 0.00 | 0.00 | 25 | 1009.4 |
| 20260505123235 | 81 | 155 | 3.0 | 10.0 | 0.00 | 0.00 | 0.00 | 25 | 1009.4 |